KJ4OVR-WX Weather Reports


Display with metric or nautical units.
time (UTC)temp
F
wind
direction
speed
MPH
gust
MPH
rain 1hr
in
rain 24hr
in
rain mn
in
humidity
%
barometer
mb
20260510232520 80 0.0 0.0 0.00 0.00 0.00 51 1013.7
20260510232020 81 0.0 0.0 0.00 0.00 0.00 50 1013.6
20260510231521 82 0.0 0.0 0.00 0.00 0.00 49 1013.5
20260510231022 82 183 0.0 2.0 0.00 0.00 0.00 48 1013.5
20260510230520 83 177 0.0 2.0 0.00 0.00 0.00 47 1013.4
20260510230020 84 264 0.0 3.0 0.00 0.00 0.00 46 1013.4
20260510225521 84 176 0.0 3.0 0.00 0.00 0.00 46 1013.3
20260510225020 84 180 0.0 3.0 0.00 0.00 0.00 47 1013.4
20260510224518 83 176 0.0 2.0 0.00 0.00 0.00 46 1013.4
20260510224018 83 178 0.0 4.0 0.00 0.00 0.00 46 1013.4
20260510223519 84 183 1.0 4.0 0.00 0.00 0.00 45 1013.4
20260510223017 85 173 1.0 4.0 0.00 0.00 0.00 44 1013.4
20260510222518 85 182 0.0 3.0 0.00 0.00 0.00 44 1013.5
20260510222018 85 172 1.0 4.0 0.00 0.00 0.00 45 1013.5
20260510221518 85 174 0.0 5.0 0.00 0.00 0.00 45 1013.6
20260510221018 85 0.0 0.0 0.00 0.00 0.00 45 1013.6
20260510220517 85 321 1.0 3.0 0.00 0.00 0.00 44 1013.7
20260510220019 85 292 1.0 3.0 0.00 0.00 0.00 45 1013.7
20260510215519 85 176 1.0 3.0 0.00 0.00 0.00 46 1013.6
20260510215018 86 218 0.0 4.0 0.00 0.00 0.00 45 1013.5
20260510214518 86 173 0.0 3.0 0.00 0.00 0.00 45 1013.5
20260510214018 85 173 1.0 5.0 0.00 0.00 0.00 44 1013.5
20260510213519 85 319 1.0 3.0 0.00 0.00 0.00 45 1013.6
20260510213018 85 11 1.0 4.0 0.00 0.00 0.00 46 1013.7
20260510212519 85 38 1.0 5.0 0.00 0.00 0.00 47 1013.8
20260510212018 85 353 0.0 2.0 0.00 0.00 0.00 45 1013.8
20260510211518 84 180 1.0 4.0 0.00 0.00 0.00 46 1013.8
20260510211018 84 151 1.0 4.0 0.00 0.00 0.00 45 1013.9
20260510210523 84 271 2.0 5.0 0.00 0.00 0.00 46 1013.9
20260510210019 84 235 1.0 3.0 0.00 0.00 0.00 46 1014.0
20260510205518 84 190 1.0 6.0 0.00 0.00 0.00 46 1013.9
20260510205019 84 178 3.0 7.0 0.00 0.00 0.00 47 1013.9
20260510204519 84 250 1.0 4.0 0.00 0.00 0.00 47 1014.0
20260510204019 84 308 2.0 4.0 0.00 0.00 0.00 47 1014.1
20260510203519 84 317 2.0 6.0 0.00 0.00 0.00 47 1014.2
20260510203019 84 313 1.0 5.0 0.00 0.00 0.00 48 1014.2
20260510202519 84 341 2.0 4.0 0.00 0.00 0.00 48 1014.3
20260510202019 84 38 1.0 4.0 0.00 0.00 0.00 47 1014.3
20260510201519 84 87 1.0 3.0 0.00 0.00 0.00 47 1014.4
20260510201019 83 151 1.0 6.0 0.00 0.00 0.00 49 1014.5
20260510200519 82 244 1.0 3.0 0.00 0.00 0.00 47 1014.6
20260510200016 83 273 1.0 3.0 0.00 0.00 0.00 47 1014.6
20260510195516 83 347 2.0 5.0 0.00 0.00 0.00 48 1014.7
20260510195017 83 266 3.0 6.0 0.04 0.00 0.00 47 1014.6
20260510194517 84 277 3.0 7.0 0.10 0.00 0.00 48 1014.5
20260510194018 84 4 2.0 5.0 0.10 0.00 0.00 47 1014.6
20260510193516 84 11 2.0 4.0 0.08 0.00 0.00 48 1014.6
20260510193056 84 0.0 0.0 0.00 0.00 0.00 50 1014.6
20260510192608 84 0.0 0.0 0.00 0.00 0.00 51 1014.6
20260510192107 83 0.0 0.0 0.00 0.00 0.00 51 1014.8
20260510191609 83 0.0 0.0 0.00 0.00 0.00 49 1014.8
20260510191108 83 0.0 0.0 0.00 0.00 0.00 50 1014.9
20260510190607 83 0.0 0.0 0.00 0.00 0.00 52 1014.9
20260510190108 82 0.0 0.0 0.00 0.00 0.00 53 1015.0
20260510185608 82 0.0 0.0 0.00 0.00 0.00 54 1015.0
20260510185109 81 0.0 0.0 0.00 0.00 0.00 54 1015.1
20260510184608 81 0.0 0.0 0.00 0.00 0.00 54 1015.2
20260510184109 81 0.0 0.0 0.00 0.00 0.00 55 1015.2
20260510183609 81 0.0 0.0 0.00 0.00 0.00 54 1015.3
20260510183109 81 0.0 0.0 0.00 0.00 0.00 55 1015.3
20260510182610 81 0.0 0.0 0.00 0.00 0.00 55 1015.3
20260510182109 81 0.0 0.0 0.00 0.00 0.00 56 1015.5
20260510181609 81 0.0 0.0 0.00 0.00 0.00 56 1015.5
20260510181109 81 0.0 0.0 0.00 0.00 0.00 57 1015.5
20260510180609 81 0.0 0.0 0.00 0.00 0.00 58 1015.5
20260510180109 80 0.0 0.0 0.00 0.00 0.00 60 1015.7
20260510175609 80 0.0 0.0 0.00 0.00 0.00 60 1015.8
20260510175109 80 0.0 0.0 0.00 0.00 0.00 61 1015.8
20260510174615 80 0.0 0.0 0.00 0.00 0.00 61 1015.9
20260510174110 79 0.0 0.0 0.00 0.00 0.00 60 1016.0
20260510173610 79 0.0 0.0 0.00 0.00 0.00 62 1016.0
20260510173109 78 0.0 0.0 0.00 0.00 0.00 63 1016.0
20260510172610 78 0.0 0.0 0.00 0.00 0.00 64 1016.0
20260510172110 79 0.0 0.0 0.00 0.00 0.00 65 1016.0
20260510171610 79 0.0 0.0 0.00 0.00 0.00 64 1016.0
20260510171110 79 0.0 0.0 0.00 0.00 0.00 63 1016.0
20260510170610 79 0.0 0.0 0.00 0.00 0.00 63 1016.0
20260510170109 80 0.0 0.0 0.00 0.00 0.00 65 1016.0
20260510165610 79 0.0 0.0 0.00 0.00 0.00 65 1016.1
20260510165110 79 0.0 0.0 0.00 0.00 0.00 66 1016.2
20260510164610 78 0.0 0.0 0.00 0.00 0.00 68 1016.3
20260510164210 78 0.0 0.0 0.00 0.00 0.00 68 1016.3
20260510163610 78 0.0 0.0 0.00 0.00 0.00 68 1016.4
20260510163110 77 0.0 0.0 0.00 0.00 0.00 68 1016.5
20260510162611 77 0.0 0.0 0.00 0.00 0.00 68 1016.5
20260510162110 77 0.0 0.0 0.00 0.00 0.00 71 1016.5
20260510161610 76 0.0 0.0 0.00 0.00 0.00 74 1016.6
20260510161110 76 0.0 0.0 0.00 0.00 0.00 75 1016.6
20260510160611 77 0.0 0.0 0.00 0.00 0.00 75 1016.4
20260510160111 77 0.0 0.0 0.00 0.00 0.00 75 1016.3
20260510155611 76 0.0 0.0 0.00 0.00 0.00 76 1016.3
20260510155311 76 0.0 0.0 0.00 0.00 0.00 78 1016.4
20260510154611 76 0.0 0.0 0.00 0.00 0.00 79 1016.4
20260510154111 76 0.0 0.0 0.00 0.00 0.00 79 1016.4
20260510153611 75 0.0 0.0 0.00 0.00 0.00 79 1016.4
20260510153112 75 0.0 0.0 0.00 0.00 0.00 81 1016.4
20260510152611 75 0.0 0.0 0.00 0.00 0.00 81 1016.4
20260510152111 75 0.0 0.0 0.00 0.00 0.00 82 1016.4
20260510151611 74 0.0 0.0 0.00 0.00 0.00 83 1016.4
20260510151113 74 0.0 0.0 0.00 0.00 0.00 84 1016.5
20260510150612 73 0.0 0.0 0.00 0.00 0.00 85 1016.6
20260510150112 73 0.0 0.0 0.00 0.00 0.00 86 1016.6
20260510145612 72 0.0 0.0 0.00 0.00 0.00 86 1016.7
20260510145112 72 0.0 0.0 0.00 0.00 0.00 87 1016.8
20260510144612 72 0.0 0.0 0.00 0.00 0.00 88 1016.7
20260510144112 71 0.0 0.0 0.00 0.00 0.00 89 1016.8
20260510143612 71 0.0 0.0 0.00 0.00 0.00 89 1016.8
20260510143112 70 0.0 0.0 0.00 0.00 0.00 90 1016.9
20260510142612 70 0.0 0.0 0.00 0.00 0.00 90 1016.9
20260510142112 70 0.0 0.0 0.00 0.00 0.00 91 1016.9
20260510141614 69 0.0 0.0 0.00 0.00 0.00 92 1017.0
20260510141113 69 0.0 0.0 0.00 0.00 0.00 92 1017.0
20260510140613 68 0.0 0.0 0.00 0.00 0.00 92 1017.0
20260510140112 68 0.0 0.0 0.00 0.00 0.00 93 1017.1
20260510135613 67 0.0 0.0 0.00 0.00 0.00 93 1017.1
20260510135113 66 0.0 0.0 0.00 0.00 0.00 93 1017.1
20260510134613 65 0.0 0.0 0.00 0.00 0.00 94 1017.2
20260510134113 65 0.0 0.0 0.00 0.00 0.00 94 1017.2
20260510133614 64 0.0 0.0 0.00 0.00 0.00 94 1017.2
20260510133113 63 0.0 0.0 0.00 0.00 0.00 95 1017.3
20260510132613 63 0.0 0.0 0.00 0.00 0.00 95 1017.3
20260510132113 63 0.0 0.0 0.00 0.00 0.00 95 1017.3
20260510131614 62 0.0 0.0 0.00 0.00 0.00 95 1017.4
20260510131214 62 0.0 0.0 0.00 0.00 0.00 95 1017.4
20260510130614 61 0.0 0.0 0.00 0.00 0.00 95 1017.3
20260510130113 61 0.0 0.0 0.00 0.00 0.00 95 1017.3
20260510125614 60 0.0 0.0 0.00 0.00 0.00 95 1017.3
20260510125114 59 0.0 0.0 0.00 0.00 0.00 95 1017.3
20260510124614 59 0.0 0.0 0.00 0.00 0.00 95 1017.2
20260510124114 59 0.0 0.0 0.00 0.00 0.00 95 1017.2
20260510123714 58 0.0 0.0 0.00 0.00 0.00 95 1017.2
20260510123114 57 0.0 0.0 0.00 0.00 0.00 95 1017.2
20260510122614 57 0.0 0.0 0.00 0.00 0.00 95 1017.2
20260510122114 57 0.0 0.0 0.00 0.00 0.00 95 1017.2
20260510121615 56 0.0 0.0 0.00 0.00 0.00 94 1017.2
20260510121115 56 0.0 0.0 0.00 0.00 0.00 94 1017.2
20260510120614 55 0.0 0.0 0.00 0.00 0.00 94 1017.1
20260510120116 54 0.0 0.0 0.00 0.00 0.00 94 1016.9
20260510115615 54 0.0 0.0 0.00 0.00 0.00 94 1016.9
20260510115115 54 0.0 0.0 0.00 0.00 0.00 94 1016.9
20260510114615 54 0.0 0.0 0.00 0.00 0.00 93 1016.8
20260510114115 54 0.0 0.0 0.00 0.00 0.00 93 1016.8
20260510113715 53 0.0 0.0 0.00 0.00 0.00 93 1016.7
20260510113115 53 0.0 0.0 0.00 0.00 0.00 93 1016.6
20260510112615 53 0.0 0.0 0.00 0.00 0.00 93 1016.5
20260510112116 53 0.0 0.0 0.00 0.00 0.00 93 1016.5
20260510111615 53 0.0 0.0 0.00 0.00 0.00 93 1016.5
20260510111115 53 0.0 0.0 0.00 0.00 0.00 93 1016.5
20260510110616 53 0.0 0.0 0.00 0.00 0.00 93 1016.4
20260510110115 53 0.0 0.0 0.00 0.00 0.00 93 1016.3
20260510105616 53 0.0 0.0 0.00 0.00 0.00 93 1016.2
20260510105115 53 0.0 0.0 0.00 0.00 0.00 93 1016.1
20260510104616 53 0.0 0.0 0.00 0.00 0.00 93 1016.0
20260510104116 53 0.0 0.0 0.00 0.00 0.00 93 1016.1
20260510103616 53 0.0 0.0 0.00 0.00 0.00 93 1016.0
20260510103116 54 0.0 0.0 0.00 0.00 0.00 93 1015.8
20260510102617 54 0.0 0.0 0.00 0.00 0.00 93 1015.7
20260510102116 54 0.0 0.0 0.00 0.00 0.00 93 1015.7
20260510101616 54 0.0 0.0 0.00 0.00 0.00 93 1015.8
20260510101117 54 0.0 0.0 0.00 0.00 0.00 93 1015.6
20260510100616 54 0.0 0.0 0.00 0.00 0.00 93 1015.6
20260510100116 54 0.0 0.0 0.00 0.00 0.00 93 1015.6
20260510095619 54 0.0 0.0 0.00 0.00 0.00 93 1015.6
20260510095117 54 0.0 0.0 0.00 0.00 0.00 93 1015.6
20260510094617 54 0.0 0.0 0.00 0.00 0.00 93 1015.6
20260510094117 54 0.0 0.0 0.00 0.00 0.00 93 1015.6
20260510093617 54 0.0 0.0 0.00 0.00 0.00 93 1015.6
20260510093117 54 0.0 0.0 0.00 0.00 0.00 93 1015.6
20260510092617 54 0.0 0.0 0.00 0.00 0.00 93 1015.6
20260510092317 54 0.0 0.0 0.00 0.00 0.00 93 1015.6
20260510091717 54 0.0 0.0 0.00 0.00 0.00 93 1015.6
20260510091118 54 0.0 0.0 0.00 0.00 0.00 93 1015.5
20260510090517 54 0.0 0.0 0.00 0.00 0.00 93 1015.5
20260510090017 54 0.0 0.0 0.00 0.00 0.00 93 1015.5
20260510085517 54 0.0 0.0 0.00 0.00 0.00 93 1015.5
20260510085018 55 0.0 0.0 0.00 0.00 0.00 93 1015.4
20260510084518 55 0.0 0.0 0.00 0.00 0.00 93 1015.2
20260510084018 55 0.0 0.0 0.00 0.00 0.00 93 1015.1
20260510083518 55 0.0 0.0 0.00 0.00 0.00 93 1015.0
20260510083018 55 0.0 0.0 0.00 0.00 0.00 93 1014.8
20260510082518 55 0.0 0.0 0.00 0.00 0.00 93 1014.7
20260510082018 55 0.0 0.0 0.00 0.00 0.00 93 1014.7
20260510081520 55 0.0 0.0 0.00 0.00 0.00 93 1014.7
20260510081018 55 0.0 0.0 0.00 0.00 0.00 93 1014.6
20260510080527 55 0.0 0.0 0.00 0.00 0.00 93 1014.6
20260510080018 55 0.0 0.0 0.00 0.00 0.00 93 1014.6
20260510075619 55 0.0 0.0 0.00 0.00 0.00 92 1014.6
20260510075018 56 0.0 0.0 0.00 0.00 0.00 92 1014.6
20260510074518 56 0.0 0.0 0.00 0.00 0.00 92 1014.5
20260510074019 56 0.0 0.0 0.00 0.00 0.00 92 1014.4
20260510073519 56 0.0 0.0 0.00 0.00 0.00 92 1014.4
20260510073019 56 0.0 0.0 0.00 0.00 0.00 92 1014.4
20260510072519 56 0.0 0.0 0.00 0.00 0.00 92 1014.4
20260510072019 56 0.0 0.0 0.00 0.00 0.00 92 1014.5
20260510071519 56 0.0 0.0 0.00 0.00 0.00 92 1014.5
20260510071019 56 0.0 0.0 0.00 0.00 0.00 92 1014.5
20260510070519 56 0.0 0.0 0.00 0.00 0.00 92 1014.5
20260510070019 56 0.0 0.0 0.00 0.00 0.00 92 1014.5
20260510065520 56 0.0 0.0 0.00 0.00 0.00 92 1014.4
20260510065020 56 0.0 0.0 0.00 0.00 0.00 92 1014.4
20260510064619 57 0.0 0.0 0.00 0.00 0.00 92 1014.5
20260510064120 57 0.0 0.0 0.00 0.00 0.00 92 1014.4
20260510063519 57 0.0 0.0 0.00 0.00 0.00 92 1014.3
20260510063020 57 0.0 0.0 0.00 0.00 0.00 92 1014.4
20260510062520 57 0.0 0.0 0.00 0.00 0.00 92 1014.4
20260510062021 57 0.0 0.0 0.00 0.00 0.00 92 1014.3
20260510061520 57 0.0 0.0 0.00 0.00 0.00 92 1014.4
20260510061021 57 0.0 0.0 0.00 0.00 0.00 92 1014.4
20260510060520 57 0.0 0.0 0.00 0.00 0.00 92 1014.5
20260510060021 57 0.0 0.0 0.00 0.00 0.00 92 1014.5
20260510055521 57 0.0 0.0 0.00 0.00 0.00 92 1014.5
20260510055021 57 0.0 0.0 0.00 0.00 0.00 92 1014.4
20260510054520 58 0.0 0.0 0.00 0.00 0.00 92 1014.5
20260510054021 58 0.0 0.0 0.00 0.00 0.00 92 1014.5
20260510053521 58 0.0 0.0 0.00 0.00 0.00 92 1014.5
20260510053021 58 0.0 0.0 0.00 0.00 0.00 91 1014.4
20260510052521 58 0.0 0.0 0.00 0.00 0.00 91 1014.4
20260510052121 58 0.0 0.0 0.00 0.00 0.00 91 1014.5
20260510051521 58 0.0 0.0 0.00 0.00 0.00 91 1014.5
20260510051021 58 0.0 0.0 0.00 0.00 0.00 91 1014.4
20260510050522 58 0.0 0.0 0.00 0.00 0.00 91 1014.3
20260510050021 59 0.0 0.0 0.00 0.00 0.00 91 1014.3
20260510045523 59 0.0 0.0 0.00 0.00 0.00 91 1014.3
20260510045021 59 0.0 0.0 0.00 0.00 0.00 91 1014.4
20260510044522 59 0.0 0.0 0.00 0.00 0.00 91 1014.5
20260510044022 59 0.0 0.0 0.00 0.00 0.00 91 1014.5
20260510043522 59 0.0 0.0 0.00 0.00 0.00 91 1014.5
20260510043021 59 0.0 0.0 0.00 0.00 0.00 91 1014.5
20260510042522 59 0.0 0.0 0.00 0.00 0.00 91 1014.5
20260510042022 59 0.0 0.0 0.00 0.00 0.00 91 1014.5
20260510041523 59 0.0 0.0 0.00 0.00 0.00 91 1014.5
20260510041023 60 0.0 0.0 0.00 0.00 0.00 90 1014.5
20260510040522 60 0.0 0.0 0.00 0.00 0.00 90 1014.5
20260510040023 60 0.0 0.0 0.00 0.00 0.00 90 1014.4
20260510035522 60 0.0 0.0 0.00 0.00 0.00 90 1014.5
20260510035023 60 0.0 0.0 0.00 0.00 0.00 90 1014.4
20260510034522 60 0.0 0.0 0.00 0.00 0.00 90 1014.4
20260510034023 61 0.0 0.0 0.00 0.00 0.00 90 1014.3
20260510033522 61 0.0 0.0 0.00 0.00 0.00 90 1014.3
20260510033023 61 0.0 0.0 0.00 0.00 0.00 90 1014.3
20260510032523 61 0.0 0.0 0.00 0.00 0.00 90 1014.2
20260510032027 62 0.0 0.0 0.00 0.00 0.00 90 1014.2
20260510031523 62 0.0 0.0 0.00 0.00 0.00 90 1014.2
20260510031024 62 0.0 0.0 0.00 0.00 0.00 90 1014.0
20260510030523 62 0.0 0.0 0.00 0.00 0.00 90 1014.0
20260510030124 62 0.0 0.0 0.00 0.00 0.00 90 1014.0
20260510025524 62 0.0 0.0 0.00 0.00 0.00 89 1014.0
20260510025024 62 0.0 0.0 0.00 0.00 0.00 89 1013.9
20260510024523 62 0.0 0.0 0.00 0.00 0.00 89 1013.8
20260510024023 62 0.0 0.0 0.00 0.00 0.00 89 1013.7
20260510023524 62 0.0 0.0 0.00 0.00 0.00 89 1013.6
20260510023023 62 0.0 0.0 0.00 0.00 0.00 88 1013.5
20260510022023 63 0.0 0.0 0.00 0.00 0.00 88 1013.3
20260510021525 63 0.0 0.0 0.00 0.00 0.00 88 1013.2
20260510021025 63 0.0 0.0 0.00 0.00 0.00 88 1013.1
20260510020524 63 0.0 0.0 0.00 0.00 0.00 88 1013.0
20260510020024 64 0.0 0.0 0.00 0.00 0.00 88 1012.9
20260510015524 64 0.0 0.0 0.00 0.00 0.00 87 1012.7
20260510015025 64 0.0 0.0 0.00 0.00 0.00 87 1012.7
20260510014525 64 0.0 0.0 0.00 0.00 0.00 86 1012.6
20260510014025 65 0.0 0.0 0.00 0.00 0.00 86 1012.5
20260510013524 65 0.0 0.0 0.00 0.00 0.00 85 1012.3
20260510013024 65 0.0 0.0 0.00 0.00 0.00 85 1012.3
20260510012525 65 0.0 0.0 0.00 0.00 0.00 85 1012.2
20260510012024 66 0.0 0.0 0.00 0.00 0.00 84 1012.1
20260510011525 66 0.0 0.0 0.00 0.00 0.00 84 1012.1
20260510011025 66 0.0 0.0 0.00 0.00 0.00 83 1012.0
20260510010525 67 0.0 0.0 0.00 0.00 0.00 83 1011.9
20260510010025 67 0.0 0.0 0.00 0.00 0.00 83 1011.8
20260510005525 67 0.0 0.0 0.00 0.00 0.00 81 1011.7
20260510005025 68 0.0 0.0 0.00 0.00 0.00 81 1011.6
20260510004525 68 0.0 0.0 0.00 0.00 0.00 81 1011.5
20260510004025 68 0.0 0.0 0.00 0.00 0.00 81 1011.3
20260510003525 69 0.0 0.0 0.00 0.00 0.00 81 1011.3
20260510003025 69 0.0 0.0 0.00 0.00 0.00 79 1011.2
20260510002625 69 0.0 0.0 0.00 0.00 0.00 78 1011.1
20260510002026 70 0.0 0.0 0.00 0.00 0.00 78 1011.1
20260510001526 70 0.0 0.0 0.00 0.00 0.00 76 1011.1
20260510001025 70 0.0 0.0 0.00 0.00 0.00 76 1010.9
20260510000526 70 0.0 0.0 0.00 0.00 0.00 75 1010.8
20260510000026 71 0.0 0.0 0.00 0.00 0.00 74 1010.8
20260509235527 71 0.0 0.0 0.00 0.00 0.00 71 1010.8
20260509235026 71 0.0 0.0 0.00 0.00 0.00 68 1010.6
20260509234527 72 0.0 0.0 0.00 0.00 0.00 68 1010.6
20260509234026 72 0.0 0.0 0.00 0.00 0.00 68 1010.6
20260509233526 73 0.0 0.0 0.00 0.00 0.00 68 1010.7
20260509233026 73 0.0 0.0 0.00 0.00 0.00 66 1010.7